EZY226 EGBB-EGAA

Flight info

Callsign EZY226
Flight time N/A
Altitude 28000
Route LUVUM DCT NANTI L8 TADAL UL8 BILVO UP6 TUPEM DCT REMSI DCT UVPOK M147 ROBOP M146 IPSET P6 BELZU
Aircraft A320/M-SDE3FGHIRWY/LB1

Departure

Time N/A
Airport Birmingham Airport (EGBB)

Arrival

Time 2026-05-06 06:45
Airport Belfast International Airport (EGAA)
Time Latitude Longitude Altitude Speed Heading
2026-05-06 06:17 53.67476 -3.12348 27475 ft 447 kts 324°
2026-05-06 06:18 53.70062 -3.15250 27879 ft 445 kts 321°
2026-05-06 06:18 53.72430 -3.18600 28059 ft 443 kts 313°
2026-05-06 06:18 53.76118 -3.26843 28083 ft 444 kts 299°
2026-05-06 06:19 53.79323 -3.35788 28076 ft 444 kts 300°
2026-05-06 06:19 53.82546 -3.44728 28075 ft 444 kts 300°
2026-05-06 06:20 53.85744 -3.53615 28070 ft 444 kts 300°
2026-05-06 06:20 53.88949 -3.62577 28066 ft 444 kts 299°
2026-05-06 06:21 53.92135 -3.71558 28067 ft 443 kts 299°
2026-05-06 06:21 53.95171 -3.80661 28061 ft 441 kts 292°
2026-05-06 06:22 53.96764 -3.90604 28055 ft 439 kts 278°
2026-05-06 06:22 53.97672 -4.00880 28051 ft 439 kts 278°
2026-05-06 06:23 53.98575 -4.11146 28045 ft 439 kts 278°
2026-05-06 06:23 54.00082 -4.21194 28047 ft 441 kts 292°
2026-05-06 06:24 54.03226 -4.30106 28042 ft 443 kts 303°
2026-05-06 06:24 54.06777 -4.38688 28042 ft 443 kts 303°
2026-05-06 06:25 54.10326 -4.47300 28044 ft 443 kts 303°
2026-05-06 06:25 54.13870 -4.55916 27706 ft 444 kts 303°
2026-05-06 06:26 54.15642 -4.60234 27438 ft 445 kts 303°
2026-05-06 06:26 54.17394 -4.64508 27181 ft 445 kts 303°
2026-05-06 06:26 54.19070 -4.68950 26917 ft 445 kts 297°
2026-05-06 06:26 54.20563 -4.73582 26660 ft 445 kts 297°
2026-05-06 06:27 54.22036 -4.78235 26396 ft 446 kts 297°
2026-05-06 06:27 54.23502 -4.82919 26142 ft 446 kts 296°
2026-05-06 06:27 54.24485 -4.86082 25968 ft 447 kts 296°
2026-05-06 06:27 54.25921 -4.90709 25078 ft 446 kts 296°
2026-05-06 06:28 54.27380 -4.95421 23934 ft 449 kts 297°
2026-05-06 06:28 54.28852 -5.00167 22695 ft 452 kts 297°
2026-05-06 06:28 54.30320 -5.04879 21926 ft 444 kts 297°
2026-05-06 06:28 54.31769 -5.09530 21037 ft 440 kts 297°
2026-05-06 06:29 54.33199 -5.14128 20253 ft 434 kts 297°
2026-05-06 06:29 54.34607 -5.18685 19488 ft 430 kts 297°
2026-05-06 06:29 54.35979 -5.23137 18726 ft 413 kts 297°
2026-05-06 06:29 54.37292 -5.27402 17983 ft 394 kts 297°
2026-05-06 06:30 54.38534 -5.31444 17306 ft 386 kts 297°
2026-05-06 06:30 54.39783 -5.35517 16653 ft 384 kts 297°
2026-05-06 06:30 54.41022 -5.39564 16019 ft 379 kts 297°
2026-05-06 06:30 54.42219 -5.43484 15395 ft 362 kts 297°
2026-05-06 06:31 54.43362 -5.47228 14847 ft 346 kts 297°
2026-05-06 06:31 54.44461 -5.50824 14307 ft 333 kts 297°
2026-05-06 06:31 54.45517 -5.54287 13802 ft 320 kts 297°
2026-05-06 06:31 54.46531 -5.57624 13264 ft 309 kts 297°
2026-05-06 06:32 54.47493 -5.60798 12814 ft 298 kts 297°
2026-05-06 06:32 54.48435 -5.63915 12364 ft 288 kts 297°
2026-05-06 06:32 54.49343 -5.66927 11929 ft 279 kts 297°
2026-05-06 06:32 54.50223 -5.69855 11488 ft 271 kts 297°
2026-05-06 06:33 54.51069 -5.72671 11052 ft 265 kts 297°
2026-05-06 06:33 54.51903 -5.75460 10628 ft 258 kts 297°
2026-05-06 06:33 54.52717 -5.78191 10208 ft 253 kts 297°
2026-05-06 06:33 54.53511 -5.80863 9773 ft 247 kts 297°
2026-05-06 06:34 54.54286 -5.83473 9313 ft 242 kts 297°
2026-05-06 06:34 54.55050 -5.86037 8855 ft 238 kts 297°
2026-05-06 06:34 54.55793 -5.88517 8413 ft 234 kts 297°
2026-05-06 06:34 54.56540 -5.90990 7965 ft 230 kts 296°
2026-05-06 06:35 54.57278 -5.93414 7528 ft 227 kts 297°
2026-05-06 06:35 54.58009 -5.95808 7120 ft 226 kts 297°
2026-05-06 06:35 54.58735 -5.98194 7055 ft 223 kts 297°
2026-05-06 06:35 54.59456 -6.00564 7058 ft 223 kts 297°
2026-05-06 06:36 54.60169 -6.02907 7057 ft 223 kts 297°
2026-05-06 06:36 54.60890 -6.05282 7054 ft 223 kts 297°
2026-05-06 06:36 54.61612 -6.07665 7056 ft 223 kts 297°
2026-05-06 06:36 54.62321 -6.09997 7053 ft 220 kts 297°
2026-05-06 06:37 54.63026 -6.12318 7055 ft 218 kts 297°
2026-05-06 06:37 54.63729 -6.14633 7058 ft 217 kts 297°
2026-05-06 06:37 54.64432 -6.16946 7053 ft 217 kts 296°
2026-05-06 06:37 54.65142 -6.19286 6803 ft 222 kts 297°
2026-05-06 06:38 54.65864 -6.21675 6481 ft 226 kts 297°
2026-05-06 06:38 54.66585 -6.24073 6139 ft 229 kts 296°
2026-05-06 06:38 54.67322 -6.26532 5801 ft 231 kts 296°
2026-05-06 06:38 54.68064 -6.29018 5456 ft 233 kts 296°
2026-05-06 06:39 54.68814 -6.31530 5117 ft 236 kts 296°
2026-05-06 06:39 54.69557 -6.34020 4996 ft 228 kts 296°
2026-05-06 06:39 54.70254 -6.36352 4998 ft 216 kts 296°
2026-05-06 06:39 54.71099 -6.38448 5006 ft 212 kts 319°
2026-05-06 06:40 54.72373 -6.39631 5027 ft 206 kts 347°
2026-05-06 06:40 54.73776 -6.39619 5017 ft 202 kts 17°
2026-05-06 06:40 54.74992 -6.38470 4996 ft 200 kts 45°
2026-05-06 06:40 54.75788 -6.36530 4635 ft 201 kts 67°
2026-05-06 06:41 54.76190 -6.34232 4293 ft 198 kts 76°
2026-05-06 06:41 54.76927 -6.32279 3998 ft 197 kts 38°
2026-05-06 06:41 54.78178 -6.31322 3714 ft 198 kts 19°
2026-05-06 06:41 54.79322 -6.30088 3420 ft 193 kts 54°
2026-05-06 06:42 54.79661 -6.27963 3158 ft 188 kts 99°
2026-05-06 06:42 54.79029 -6.26055 3024 ft 187 kts 142°
2026-05-06 06:42 54.77813 -6.25399 2949 ft 190 kts 184°
2026-05-06 06:42 54.76507 -6.25907 2525 ft 195 kts 191°
2026-05-06 06:43 54.75185 -6.26397 2196 ft 192 kts 190°
2026-05-06 06:43 54.73891 -6.26748 1957 ft 186 kts 179°
2026-05-06 06:43 54.72608 -6.26502 1703 ft 183 kts 166°
2026-05-06 06:43 54.71433 -6.25977 1476 ft 165 kts 162°
2026-05-06 06:44 54.70393 -6.25430 1224 ft 150 kts 161°
2026-05-06 06:44 54.69416 -6.24893 1009 ft 144 kts 160°
2026-05-06 06:44 54.68486 -6.24375 806 ft 138 kts 160°
2026-05-06 06:44 54.67593 -6.23875 634 ft 136 kts 160°
2026-05-06 06:45 54.66696 -6.23371 447 ft 135 kts 160°
2026-05-06 06:45 54.65808 -6.22872 267 ft 132 kts 160°
2026-05-06 06:45 54.65018 -6.22415 241 ft 104 kts 165°
2026-05-06 06:45 54.64632 -6.22205 252 ft 19 kts 161°
2026-05-06 06:46 54.64531 -6.22148 254 ft 7 kts 163°
2026-05-06 06:46 54.64487 -6.22212 256 ft 10 kts 268°
2026-05-06 06:46 54.64518 -6.22305 256 ft 10 kts 322°
2026-05-06 06:46 54.64605 -6.22368 253 ft 18 kts 341°
2026-05-06 06:47 54.64698 -6.22452 250 ft 14 kts 316°
2026-05-06 06:47 54.64769 -6.22573 247 ft 15 kts 315°
2026-05-06 06:47 54.64848 -6.22712 242 ft 18 kts 313°
2026-05-06 06:47 54.64922 -6.22781 239 ft 12 kts 340°
2026-05-06 06:48 54.65004 -6.22830 240 ft 13 kts 338°
2026-05-06 06:48 54.65071 -6.22941 230 ft 15 kts 301°
2026-05-06 06:48 54.65131 -6.23130 223 ft 20 kts 299°
2026-05-06 06:48 54.65190 -6.23305 223 ft 16 kts 300°
2026-05-06 06:49 54.65256 -6.23390 217 ft 12 kts 26°
2026-05-06 06:49 54.65340 -6.23379 219 ft 14 kts 338°
2026-05-06 06:49 54.65433 -6.23388 222 ft 14 kts 21°
2026-05-06 06:49 54.65523 -6.23318 221 ft 16 kts 33°
2026-05-06 06:50 54.65605 -6.23143 222 ft 20 kts 56°
2026-05-06 06:50 54.65692 -6.22932 224 ft 23 kts 53°
2026-05-06 06:50 54.65740 -6.22682 223 ft 22 kts 83°
2026-05-06 06:50 54.65757 -6.22421 228 ft 21 kts 83°
2026-05-06 06:51 54.65777 -6.22183 235 ft 19 kts 77°
2026-05-06 06:51 54.65825 -6.22020 238 ft 12 kts 34°
2026-05-06 06:51 54.65889 -6.21997 238 ft 8 kts 15°
2026-05-06 06:51 54.65938 -6.21960 238 ft 7 kts 45°
2026-05-06 06:52 54.65953 -6.21912 239 ft 1 kts 65°
2026-05-06 06:52 54.65952 -6.21912 239 ft 0 kts 65°